Location: Newark
(45.2500°N, 7.5833°E)
Time: 15:39:24
(UTC+00:00)

Tiros 1 despin weight - Pass Details

Date: 27 January 2020
Orbit: 594 x 642 km, 48.2° (Epoch: 24 February)

Event Time Altitude Azimuth Distance (km) Brightness Sun altitude
Rises 15:15:21 0° 290° (WNW) 2,905 ? 10.0°
Reaches altitude 10° 15:17:41 10° 286° (WNW) 2,004 ? 9.7°
Maximum altitude 15:22:12 56° 209° (SSW) 752 ? 9.1°
Drops below altitude 10° 15:26:45 10° 131° (SE) 2,019 ? 8.5°
Sets 15:29:07 0° 127° (SE) 2,929 ? 8.1°
